Date String (YYYY-MM-DD hh:mm:ss) UTC,Instrument flags,absolute air pressure of the measurement (hPa),sample flow rate (lpm),inlet stack bypass flow (lpm),air temperature of the measurement (°C),ambient temperature measured by the external sensor (°C),aerosol sample conditioner tube jacket temperature (°C),OPC LED temperature (°C),internal box temperature (°C),relative humidity of the measurement (%),span deviation,mass concentration of particles derived from Lorenz-Mie calculation of OPC scattering (μg/m³),mass concentration of particles derived from Lorenz-Mie calculation of OPC scattering (μg/m³),mass concentration of particles derived from Lorenz-Mie calculation of OPC scattering (μg/m³)
DateTimeUTC,F1_M11,P_M11,Q1_M11,Q2_M11,T1_M11,T2_M11,T3_M11,T4_M11,T5_M11,U1_M11,ZSPAN_M11,X2_M11,X0_M11,X1_M11
2023-07-11 08:00:00,SystemResetWarning,0830.5,5.00,000.00,029.3,025.9,000.0,037.7,030.5,22.1,0000.0,0005.00,0012.26,0004.30
2023-07-11 08:01:00,SystemResetWarning,0830.6,5.00,000.00,029.2,026.3,000.0,037.8,030.6,22.4,0000.0,0005.11,0013.15,0004.36
2023-07-11 08:02:00,SystemResetWarning,0830.6,5.01,000.00,029.2,026.7,000.0,037.8,030.7,22.5,0000.0,0005.12,0012.67,0004.34
2023-07-11 08:03:00,SystemResetWarning,0830.7,5.01,000.00,029.2,027.0,000.0,037.8,030.8,22.5,0000.0,0005.10,0012.14,0004.29
2023-07-11 08:04:00,SystemResetWarning,0830.7,4.98,000.00,029.3,027.3,000.0,037.8,030.8,22.6,0000.0,0005.05,0011.86,0004.26
2023-07-11 08:05:00,SystemResetWarning,0830.6,4.99,000.00,029.3,027.5,000.0,037.8,030.9,22.6,0000.0,0004.98,0011.34,0004.18
2023-07-11 08:06:00,SystemResetWarning,0830.6,5.02,000.00,029.3,027.7,000.0,037.8,030.9,22.7,0000.0,0004.89,0011.04,0004.12
2023-07-11 08:07:00,SystemResetWarning,0830.6,5.00,000.00,029.3,027.9,000.0,037.8,031.0,22.8,0000.0,0004.85,0011.00,0004.06
2023-07-11 08:08:00,SystemResetWarning,0830.6,5.00,000.00,029.4,028.0,000.0,037.8,031.0,22.8,0000.0,0004.76,0010.76,0003.99
2023-07-11 08:09:00,SystemResetWarning,0830.6,5.00,000.00,029.4,028.1,000.0,037.8,031.1,22.7,0000.0,0004.65,0011.04,0003.92
2023-07-11 08:10:00,SystemResetWarning,0830.6,5.00,000.00,029.4,028.2,000.0,037.9,031.1,22.7,0000.0,0004.62,0011.86,0003.87
2023-07-11 08:11:00,SystemResetWarning,0830.6,5.00,000.00,029.5,028.3,000.0,037.9,031.1,22.9,0000.0,0004.55,0011.40,0003.83
2023-07-11 08:12:00,SystemResetWarning,0830.7,5.00,000.00,029.5,028.4,000.0,037.9,031.2,22.9,0000.0,0004.49,0010.20,0003.81
2023-07-11 08:13:00,SystemResetWarning,0830.6,4.98,000.00,029.5,027.3,000.0,037.8,031.1,22.6,0000.0,0004.47,0010.06,0003.82
2023-07-11 08:14:00,SystemResetWarning,0830.6,5.01,000.00,029.4,025.5,000.0,037.7,030.8,22.1,0000.0,0004.50,0010.17,0003.84
2023-07-11 08:15:00,SystemResetWarning,0830.6,5.01,000.00,029.4,025.3,000.0,037.7,030.6,21.8,0000.0,0004.53,0010.66,0003.86
2023-07-11 08:16:00,SystemResetWarning,0830.6,5.01,000.00,029.2,025.5,000.0,037.7,030.5,22.0,0000.0,0004.57,0011.50,0003.87
2023-07-11 08:17:00,SystemResetWarning,0830.5,4.99,000.00,029.2,025.9,000.0,037.7,030.5,22.3,0000.0,0004.62,0012.12,0003.88
2023-07-11 08:18:00,SystemResetWarning,0830.5,5.00,000.00,029.2,026.3,000.0,037.7,030.6,22.4,0000.0,0004.59,0012.76,0003.89
2023-07-11 08:19:00,SystemResetWarning,0830.6,5.00,000.00,029.2,026.7,000.0,037.7,030.7,22.6,0000.0,0004.61,0013.05,0003.90
2023-07-11 08:20:00,SystemResetWarning,0830.6,4.99,000.00,029.2,027.0,000.0,037.8,030.7,22.4,0000.0,0004.63,0013.02,0003.90
2023-07-11 08:21:00,SystemResetWarning,0830.9,4.99,000.00,029.2,027.3,000.0,037.8,030.8,22.2,0000.0,0004.58,0012.06,0003.90
2023-07-11 08:22:00,SystemResetWarning,0830.5,5.00,000.00,029.2,027.5,000.0,037.8,030.8,21.9,0000.0,0004.57,0011.95,0003.89
2023-07-11 08:23:00,SystemResetWarning,0830.5,5.00,000.00,029.3,027.7,000.0,037.8,030.9,21.8,0000.0,0004.57,0012.19,0003.87
2023-07-11 08:24:00,SystemResetWarning,0830.6,5.00,000.00,029.3,027.8,000.0,037.8,030.9,22.0,0000.0,0004.57,0012.25,0003.85
2023-07-11 08:25:00,SystemResetWarning,0830.6,5.01,000.00,029.3,028.0,000.0,037.8,031.0,22.0,0000.0,0004.58,0011.76,0003.86
2023-07-11 08:26:00,SystemResetWarning,0830.6,5.01,000.00,029.4,028.1,000.0,037.8,031.0,21.7,0000.0,0004.58,0011.18,0003.87
2023-07-11 08:27:00,SystemResetWarning,0830.6,4.99,000.00,029.4,028.2,000.0,037.8,031.1,21.6,0000.0,0004.54,0010.35,0003.87
2023-07-11 08:28:00,SystemResetWarning,0830.5,4.99,000.00,029.4,028.3,000.0,037.9,031.1,21.5,0000.0,0004.52,0009.74,0003.87
2023-07-11 08:29:00,SystemResetWarning,0830.6,5.01,000.00,029.5,028.3,000.0,037.9,031.1,21.2,0000.0,0004.53,0009.09,0003.86
2023-07-11 08:30:00,SystemResetWarning,0830.6,4.99,000.00,029.5,028.4,000.0,037.9,031.2,20.5,0000.0,0004.50,0008.80,0003.86
2023-07-11 08:31:00,SystemResetWarning,0830.6,5.01,000.00,029.5,028.3,000.0,037.9,031.2,21.1,0000.0,0004.51,0009.26,0003.87
2023-07-11 08:32:00,SystemResetWarning,0830.6,4.98,000.00,029.5,026.6,000.0,037.8,031.0,21.0,0000.0,0004.54,0009.58,0003.87
2023-07-11 08:33:00,SystemResetWarning,0830.6,5.02,000.00,029.4,025.4,000.0,037.7,030.7,20.9,0000.0,0004.51,0009.53,0003.85
2023-07-11 08:34:00,SystemResetWarning,0830.4,5.01,000.00,029.3,025.4,000.0,037.7,030.6,20.7,0000.0,0004.48,0009.28,0003.86
2023-07-11 08:35:00,SystemResetWarning,0830.4,5.00,000.00,029.2,025.7,000.0,037.7,030.5,20.4,0000.0,0004.47,0009.32,0003.85
2023-07-11 08:36:00,SystemResetWarning,0830.5,5.00,000.00,029.2,026.1,000.0,037.7,030.6,20.0,0000.0,0004.43,0009.36,0003.83
2023-07-11 08:37:00,SystemResetWarning,0830.5,5.00,000.00,029.2,026.5,000.0,037.7,030.7,19.7,0000.0,0004.37,0009.46,0003.80
2023-07-11 08:38:00,SystemResetWarning,0830.7,5.00,000.00,029.2,026.8,000.0,037.8,030.7,19.2,0000.0,0004.36,0009.48,0003.77
2023-07-11 08:39:00,SystemResetWarning,0830.5,4.99,000.00,029.2,027.1,000.0,037.8,030.8,19.3,0000.0,0004.37,0009.81,0003.75
2023-07-11 08:40:00,SystemResetWarning,0830.4,5.00,000.00,029.3,027.4,000.0,037.8,030.8,19.1,0000.0,0004.37,0009.99,0003.74
2023-07-11 08:41:00,SystemResetWarning,0830.6,5.00,000.00,029.3,027.6,000.0,037.8,030.9,19.0,0000.0,0004.37,0010.16,0003.72
2023-07-11 08:42:00,SystemResetWarning,0830.5,4.99,000.00,029.3,027.8,000.0,037.8,030.9,18.8,0000.0,0004.33,0009.45,0003.69
2023-07-11 08:43:00,SystemResetWarning,0830.5,4.99,000.00,029.3,027.9,000.0,037.8,031.0,18.6,0000.0,0004.28,0009.18,0003.67
2023-07-11 08:44:00,SystemResetWarning,0830.5,5.00,000.00,029.4,028.0,000.0,037.8,031.0,19.9,0000.0,0004.26,0009.12,0003.65
2023-07-11 08:45:00,SystemResetWarning,0830.6,5.01,000.00,029.4,028.1,000.0,037.8,031.1,20.0,0000.0,0004.24,0009.09,0003.64
2023-07-11 08:46:00,SystemResetWarning,0830.4,5.01,000.00,029.4,028.2,000.0,037.9,031.1,19.5,0000.0,0004.22,0008.93,0003.62
2023-07-11 08:47:00,SystemResetWarning,0830.5,4.99,000.00,029.5,028.3,000.0,037.9,031.1,19.2,0000.0,0004.17,0008.82,0003.60
2023-07-11 08:48:00,SystemResetWarning,0830.5,4.98,000.00,029.5,028.4,000.0,037.9,031.2,19.1,0000.0,0004.16,0008.75,0003.59
2023-07-11 08:49:00,SystemResetWarning,0830.5,5.00,000.00,029.5,028.4,000.0,037.9,031.2,18.9,0000.0,0004.14,0008.76,0003.58
2023-07-11 08:50:00,SystemResetWarning,0830.4,5.02,000.00,029.6,028.5,000.0,038.0,031.2,18.9,0000.0,0004.12,0008.54,0003.57
2023-07-11 08:51:00,SystemResetWarning,0830.4,4.99,000.00,029.6,028.1,000.0,037.9,031.2,18.8,0000.0,0004.10,0008.26,0003.56
2023-07-11 08:52:00,SystemResetWarning,0830.4,4.99,000.00,029.6,026.1,000.0,037.8,030.9,18.7,0000.0,0004.08,0008.46,0003.55
2023-07-11 08:53:00,SystemResetWarning,0830.4,5.02,000.00,029.4,025.3,000.0,037.7,030.7,19.2,0000.0,0004.06,0009.10,0003.55
2023-07-11 08:54:00,SystemResetWarning,0830.4,5.00,000.00,029.3,025.4,000.0,037.7,030.5,19.6,0000.0,0004.05,0009.09,0003.54
2023-07-11 08:55:00,SystemResetWarning,0830.4,5.00,000.00,029.3,025.8,000.0,037.8,030.5,19.3,0000.0,0004.04,0009.19,0003.54
2023-07-11 08:56:00,SystemResetWarning,0830.4,5.00,000.00,029.2,026.2,000.0,037.8,030.6,19.4,0000.0,0004.07,0009.59,0003.54
2023-07-11 08:57:00,SystemResetWarning,0830.4,4.99,000.00,029.2,026.6,000.0,037.8,030.7,19.5,0000.0,0004.07,0010.04,0003.54
2023-07-11 08:58:00,SystemResetWarning,0830.4,5.00,000.00,029.3,026.9,000.0,037.8,030.7,19.5,0000.0,0004.09,0010.75,0003.55
2023-07-11 08:59:00,SystemResetWarning,0830.3,5.00,000.00,029.3,027.2,000.0,037.8,030.8,19.3,0000.0,0004.11,0011.11,0003.55
